Regional Weather Roundup
Issued by NWS

Home | Current Version | Previous Version | Text Only | Print | Product List | Glossary On
Versions: 1 2 3 4 5 6 7 8 9 10 11 12 13 14 15 16 17 18 19 20 21 22 23 24 25 26 27 28 29 30 31 32 33 34 35 36 37 38 39 40 41 42 43 44 45 46 47 48 49 50
000
ASCA42 TJSJ 201111
RWRPR
PUERTO RICO/U.S. VIRGIN ISLANDS HOURLY WEATHER ROUNDUP
NATIONAL WEATHER SERVICE SAN JUAN PR
700 AM AST MON OCT 20 2014

PRZ001-004-201200-
PUERTO RICO

CITY           SKY/WX    TMP DP  RH WIND       PRES   REMARKS
SAN JUAN LMM   PTCLDY    79  75  89 CALM      29.96R
AGUADILLA      CLEAR     75  72  88 CALM      29.96
CEIBA          MOCLDY    79  75  89 CALM      29.98R
$$

PRZ006-007-201200-
U.S. VIRGIN ISLANDS

CITY           SKY/WX    TMP DP  RH WIND       PRES   REMARKS
CHRISTIANSTED  CLEAR     77  73  88 N5        29.96R
$$

HOURLY WEATHER ROUNDUP FOR THE NEWS MEDIA

CITY           SKY/WX    TMP DP  RH WIND       PRES   REMARKS
MIAMI          PTCLDY    72  64  76 CALM      29.99S
ORLANDO        CLEAR     68  66  93 CALM      30.03R
NEW YORK       MOCLDY    44  30  57 W7        30.11S
NEWARK         MOCLDY    40  30  67 W7        30.11R
CHICAGO        MOCLDY    49  44  83 SW8       29.80F
HARTFORD       CLEAR     32  27  81 SW3       30.05R
BOSTON         PTCLDY    40  26  57 W9        30.04R WCI  34
DALLAS         PTCLDY    59  54  83 E3        30.06R
PHILADELPHIA   PTCLDY    41  31  67 S7        30.13S


USA.gov is the U.S. government's official web portal to all federal, state and local government web resources and services.